SCP
0 0 -0 -0 0 0 0 0 0 0 0 -0 0 0 -0 0 1 1 0 0 0 2 2 0 0 1 1 2 2 1 1 1
0 0 0 0 -0 0 0 0 0 0 0 -0 0 0 -0 1 1 1 0 0 0 1 0 1 1 -0 1 3 0 1 1 1
0 0 0 0 0 0 -0 0 0 -0 -0 0 0 0 -0 0 0 0 0 0 0 1 1 1 1 1 1 1 0 1 1 1
0 0 0 0 0 0 0 0 0 0 -0 0 0 -0 0 1 1 0 0 0 1 1 0 0 1 2 1 2 2 1 1 1
0 0 0 0 0 0 0 0 -0 0 0 0 0 0 0 0 1 1 1 2 2 2 0 0 0 0 0 1 1 2 2 2
0 -0 0 0 0 0 0 0 0 -0 -0 0 0 0 0 0 0 0 2 2 2 2 0 0 0 0 1 0 0 1 2 3
0 -0 0 0 0 0 0 0 0 -0 0 0 0 0 0 0 0 0 1 1 1 0 0 -0 0 1 0 0 0 0 0 1
0 0 0 -0 -0 0 0 -0 0 0 0 -0 -0 0 0 0 0 0 1 1 1 0 0 0 0 0 0 0 0 0 0 0
0 0 0 0 0 0 0 0 0 0 0 0 0 0 0 0 0 0 0 0 1 1 0 0 0 0 1 1 0 1 1 0
0 0 0 0 0 0 0 0 0 0 0 0 0 0 0 0 0 0 0 0 0 0 0 0 0 0 0 0 0 1 1 0
0 0 0 0 0 0 0 0 0 0 0 0 0 0 0 0 0 0 0 0 0 0 0 0 0 0 0 0 0 1 1 1
0 0 0 0 0 0 0 0 0 0 0 0 0 0 0 0 0 0 0 0 0 0 0 0 0 0 0 0 0 1 1 1
0 0 0 0 0 0 0 0 0 0 0 0 0 0 0 0 0 0 0 0 0 0 0 0 0 0 0 0 0 0 1 1
0 0 0 0 0 0 0 0 0 0 0 0 0 0 0 0 0 0 0 0 0 0 0 0 0 0 0 0 1 0 0 1
0 0 0 0 0 0 0 0 0 0 0 0 0 0 0 0 0 0 0 0 0 0 0 0 0 0 0 0 0 0 0 0
0 0 0 0 0 0 0 0 0 0 0 0 0 0 0 0 0 0 0 0 0 0 -0 0 0 0 0 0 0 0 0 0
0 0 0 0 0 0 0 0 0 0 0 0 0 0 0 0 0 0 0 0 0 0 0 0 0 0 0 0 0 0 0 0
0 0 0 0 0 0 0 0 0 0 0 0 0 0 0 0 0 0 0 0 0 0 0 0 0 0 0 0 0 0 0 0
0 0 0 0 0 0 0 0 0 0 0 0 0 0 0 0 0 0 0 0 0 0 0 0 0 0 0 0 0 0 0 0
Wind_Speed_500mb
17 11 18 21 10 18 9 6 11 7 5 10 28 31 48 17 51 38 39 11 22 25 40 31 65 53 38 37 46 34 20 21
8 6 13 7 11 11 9 7 7 9 1 7 6 34 29 32 37 48 28 15 24 21 18 19 20 36 24 41 43 14 17 27
8 10 16 3 9 9 3 6 10 9 10 16 27 38 24 27 40 35 36 31 17 17 22 28 29 36 8 14 13 11 18 21
14 14 15 15 12 10 7 9 5 12 9 27 31 46 22 42 34 24 32 27 31 38 31 14 8 21 24 3 3 14 12 21
19 12 19 8 10 12 28 6 7 8 9 28 44 23 44 44 32 35 43 24 25 21 2 17 10 20 24 16 18 19 20 21
8 8 5 10 26 35 11 8 13 4 13 14 20 19 30 32 25 23 39 36 33 31 24 14 18 10 14 15 18 16 12 12
17 15 9 10 9 27 23 17 7 12 17 13 15 18 33 38 39 26 35 35 35 29 19 16 14 13 18 18 23 20 10 9
15 15 15 6 13 22 19 40 10 34 23 17 37 36 36 26 19 19 23 20 13 1 2 10 15 16 20 26 20 27 19 20
8 17 16 10 10 11 11 31 14 15 10 19 19 25 26 22 6 4 4 8 6 7 2 6 8 18 7 24 19 22 30 33
4 12 11 3 29 24 42 33 32 24 16 22 21 32 46 47 42 39 35 34 28 22 20 21 21 22 31 28 31 34 37 42
3 4 14 13 20 17 13 24 27 25 28 43 42 28 41 47 42 40 39 38 36 35 37 38 37 38 41 42 46 44 43 41
5 3 3 7 19 26 21 10 30 37 31 34 38 11 11 53 44 40 43 46 49 50 50 53 56 60 59 56 56 58 60 60
6 9 10 12 33 28 7 1 31 35 35 35 10 19 39 45 53 56 56 52 48 47 49 49 49 49 52 55 52 48 44 46
8 12 5 29 22 11 7 30 31 32 34 34 35 39 40 38 39 45 52 54 50 50 47 45 47 47 48 49 50 53 55 58
9 7 21 37 39 36 31 31 31 31 32 32 37 43 46 44 52 51 56 57 60 60 67 72 70 66 66 72 73 75 73 75
11 13 31 40 33 29 24 20 22 27 35 39 43 39 33 47 55 62 64 58 55 64 70 76 78 74 64 64 71 78 78 82
12 14 37 32 24 19 19 19 29 34 41 28 23 31 43 55 59 59 63 67 67 66 63 67 71 70 71 66 69 72 73 78
6 15 15 17 18 19 26 26 27 34 19 28 36 45 50 50 54 59 63 64 65 65 60 60 58 62 67 67 64 69 70 69
21 18 17 11 25 25 24 29 28 28 34 36 45 52 50 52 53 58 62 60 65 64 61 60 59 61 55 57 57 57 58 58
Wind_Direction_500mb
199 178 179 263 273 246 186 185 86 6 299 345 13 336 283 263 105 114 133 132 62 64 70 180 198 204 208 219 200 199 221 244
162 110 291 262 259 344 345 89 32 18 281 254 46 253 260 104 113 130 138 352 69 58 56 55 99 209 209 240 213 140 260 269
134 181 219 281 267 313 100 115 137 154 254 194 223 236 284 123 118 111 106 104 105 82 71 66 45 58 86 225 236 278 281 278
261 24 59 47 10 35 101 294 163 135 264 147 202 242 188 102 109 116 122 136 139 131 117 112 118 29 24 332 272 224 213 254
329 17 350 32 342 348 346 352 283 117 245 157 206 114 113 102 111 104 123 109 122 142 212 11 228 227 288 296 285 298 309 281
225 307 104 24 353 350 21 351 315 16 188 46 74 91 81 76 67 88 104 98 85 77 101 152 141 238 265 285 291 291 296 290
306 116 125 150 43 335 306 257 161 63 71 63 76 79 70 57 46 74 108 110 108 115 120 146 191 246 263 260 307 292 290 9
315 340 112 146 241 227 243 261 182 106 124 141 113 96 85 73 39 27 65 89 98 48 272 216 236 256 269 257 273 298 285 264
316 352 354 359 275 244 66 41 61 74 102 75 62 64 56 43 74 38 319 322 48 100 359 304 333 306 273 233 245 276 291 297
327 3 338 345 17 62 67 42 31 64 70 74 68 65 62 50 46 26 17 11 7 354 330 313 294 293 308 297 291 289 289 294
111 284 281 39 18 21 77 40 26 41 41 37 24 65 57 20 6 358 350 341 334 326 318 312 311 307 305 303 299 294 291 284
339 4 296 8 16 0 346 29 17 38 28 25 22 20 314 348 352 344 333 328 322 317 313 309 307 302 299 299 299 295 292 289
265 221 73 354 8 313 28 201 29 21 15 8 14 334 337 336 330 325 324 322 317 311 309 309 306 296 291 291 289 293 294 293
18 32 57 22 37 76 88 43 33 21 9 4 352 345 354 359 352 338 328 325 319 317 312 308 310 304 298 296 293 289 286 286
122 158 110 81 79 62 52 36 11 353 344 14 11 350 341 338 330 330 326 323 319 316 312 308 307 303 300 300 299 296 295 293
88 26 78 70 60 45 26 1 355 35 5 355 345 351 346 331 330 327 325 328 317 318 316 311 307 309 301 291 291 294 291 290
98 51 86 58 44 18 7 24 17 360 349 0 358 344 337 332 330 334 335 328 324 324 314 305 304 300 302 303 303 298 294 288
127 97 79 46 18 25 46 25 360 348 41 5 350 344 343 342 341 333 334 337 327 327 327 326 316 306 304 311 313 305 298 292
109 89 69 34 65 48 21 2 17 38 11 357 345 348 348 338 334 337 345 347 342 339 337 338 334 327 326 322 318 310 300 295
Wind_Speed_850mb
17 11 18 21 10 18 9 6 11 7 5 10 28 31 48 17 51 38 39 11 22 25 40 31 65 53 38 37 46 34 20 21
8 6 13 7 11 11 9 7 7 9 1 7 6 34 29 32 37 48 28 15 24 21 18 19 20 36 24 41 43 14 17 27
8 10 16 3 9 9 3 6 10 9 10 16 27 38 24 27 40 35 36 31 17 17 22 28 29 36 8 14 13 11 18 21
14 14 15 15 12 10 7 9 5 12 9 27 31 46 22 42 34 24 32 27 31 38 31 14 8 21 24 3 3 14 12 21
19 12 19 8 10 12 28 6 7 8 9 28 44 23 44 44 32 35 43 24 25 21 2 17 10 20 24 16 18 19 20 21
8 8 5 10 26 35 11 8 13 4 13 14 20 19 30 32 25 23 39 36 33 31 24 14 18 10 14 15 18 16 12 12
17 15 9 10 9 27 23 17 7 12 17 13 15 18 33 38 39 26 35 35 35 29 19 16 14 13 18 18 23 20 10 9
15 15 15 6 13 22 19 40 10 34 23 17 37 36 36 26 19 19 23 20 13 1 2 10 15 16 20 26 20 27 19 20
8 17 16 10 10 11 11 31 14 15 10 19 19 25 26 22 6 4 4 8 6 7 2 6 8 18 7 24 19 22 30 33
4 12 11 3 29 24 42 33 32 24 16 22 21 32 46 47 42 39 35 34 28 22 20 21 21 22 31 28 31 34 37 42
3 4 14 13 20 17 13 24 27 25 28 43 42 28 41 47 42 40 39 38 36 35 37 38 37 38 41 42 46 44 43 41
5 3 3 7 19 26 21 10 30 37 31 34 38 11 11 53 44 40 43 46 49 50 50 53 56 60 59 56 56 58 60 60
6 9 10 12 33 28 7 1 31 35 35 35 10 19 39 45 53 56 56 52 48 47 49 49 49 49 52 55 52 48 44 46
8 12 5 29 22 11 7 30 31 32 34 34 35 39 40 38 39 45 52 54 50 50 47 45 47 47 48 49 50 53 55 58
9 7 21 37 39 36 31 31 31 31 32 32 37 43 46 44 52 51 56 57 60 60 67 72 70 66 66 72 73 75 73 75
11 13 31 40 33 29 24 20 22 27 35 39 43 39 33 47 55 62 64 58 55 64 70 76 78 74 64 64 71 78 78 82
12 14 37 32 24 19 19 19 29 34 41 28 23 31 43 55 59 59 63 67 67 66 63 67 71 70 71 66 69 72 73 78
6 15 15 17 18 19 26 26 27 34 19 28 36 45 50 50 54 59 63 64 65 65 60 60 58 62 67 67 64 69 70 69
21 18 17 11 25 25 24 29 28 28 34 36 45 52 50 52 53 58 62 60 65 64 61 60 59 61 55 57 57 57 58 58
Wind_Direction_850mb
199 178 179 263 273 246 186 185 86 6 299 345 13 336 283 263 105 114 133 132 62 64 70 180 198 204 208 219 200 199 221 244
162 110 291 262 259 344 345 89 32 18 281 254 46 253 260 104 113 130 138 352 69 58 56 55 99 209 209 240 213 140 260 269
134 181 219 281 267 313 100 115 137 154 254 194 223 236 284 123 118 111 106 104 105 82 71 66 45 58 86 225 236 278 281 278
261 24 59 47 10 35 101 294 163 135 264 147 202 242 188 102 109 116 122 136 139 131 117 112 118 29 24 332 272 224 213 254
329 17 350 32 342 348 346 352 283 117 245 157 206 114 113 102 111 104 123 109 122 142 212 11 228 227 288 296 285 298 309 281
225 307 104 24 353 350 21 351 315 16 188 46 74 91 81 76 67 88 104 98 85 77 101 152 141 238 265 285 291 291 296 290
306 116 125 150 43 335 306 257 161 63 71 63 76 79 70 57 46 74 108 110 108 115 120 146 191 246 263 260 307 292 290 9
315 340 112 146 241 227 243 261 182 106 124 141 113 96 85 73 39 27 65 89 98 48 272 216 236 256 269 257 273 298 285 264
316 352 354 359 275 244 66 41 61 74 102 75 62 64 56 43 74 38 319 322 48 100 359 304 333 306 273 233 245 276 291 297
327 3 338 345 17 62 67 42 31 64 70 74 68 65 62 50 46 26 17 11 7 354 330 313 294 293 308 297 291 289 289 294
111 284 281 39 18 21 77 40 26 41 41 37 24 65 57 20 6 358 350 341 334 326 318 312 311 307 305 303 299 294 291 284
339 4 296 8 16 0 346 29 17 38 28 25 22 20 314 348 352 344 333 328 322 317 313 309 307 302 299 299 299 295 292 289
265 221 73 354 8 313 28 201 29 21 15 8 14 334 337 336 330 325 324 322 317 311 309 309 306 296 291 291 289 293 294 293
18 32 57 22 37 76 88 43 33 21 9 4 352 345 354 359 352 338 328 325 319 317 312 308 310 304 298 296 293 289 286 286
122 158 110 81 79 62 52 36 11 353 344 14 11 350 341 338 330 330 326 323 319 316 312 308 307 303 300 300 299 296 295 293
88 26 78 70 60 45 26 1 355 35 5 355 345 351 346 331 330 327 325 328 317 318 316 311 307 309 301 291 291 294 291 290
98 51 86 58 44 18 7 24 17 360 349 0 358 344 337 332 330 334 335 328 324 324 314 305 304 300 302 303 303 298 294 288
127 97 79 46 18 25 46 25 360 348 41 5 350 344 343 342 341 333 334 337 327 327 327 326 316 306 304 311 313 305 298 292
109 89 69 34 65 48 21 2 17 38 11 357 345 348 348 338 334 337 345 347 342 339 337 338 334 327 326 322 318 310 300 295